Year,Month,Day,Hour,Minute,Value (Times are PST for temperature in C)
2018,08,13,00,00,14.60
2018,08,13,00,01,14.60
2018,08,13,00,02,14.60
2018,08,13,00,03,14.60
2018,08,13,00,04,14.60
2018,08,13,00,05,14.50
2018,08,13,00,06,14.50
2018,08,13,00,07,14.50
2018,08,13,00,08,14.50
2018,08,13,00,09,14.50
2018,08,13,00,10,14.50
2018,08,13,00,11,14.50
2018,08,13,00,12,14.50
2018,08,13,00,13,14.50
2018,08,13,00,14,14.50
2018,08,13,00,15,14.50
2018,08,13,00,16,14.40
2018,08,13,00,17,14.40
2018,08,13,00,18,14.40
2018,08,13,00,19,14.40
2018,08,13,00,20,14.40
2018,08,13,00,21,14.40
2018,08,13,00,22,14.40
2018,08,13,00,23,14.40
2018,08,13,00,24,14.40
2018,08,13,00,25,14.40
2018,08,13,00,26,14.30
2018,08,13,00,27,14.30
2018,08,13,00,28,14.30
2018,08,13,00,29,14.30
2018,08,13,00,30,14.30
2018,08,13,00,31,14.30
2018,08,13,00,32,14.30
2018,08,13,00,33,14.30
2018,08,13,00,34,14.30
2018,08,13,00,35,14.20
2018,08,13,00,36,14.20
2018,08,13,00,37,14.20
2018,08,13,00,38,14.20
2018,08,13,00,39,14.20
2018,08,13,00,40,14.20
2018,08,13,00,41,14.20
2018,08,13,00,42,14.20
2018,08,13,00,43,14.10
2018,08,13,00,44,14.10
2018,08,13,00,45,14.10
2018,08,13,00,46,14.10
2018,08,13,00,47,14.10
2018,08,13,00,48,14.10
2018,08,13,00,49,14.10
2018,08,13,00,50,14.10
2018,08,13,00,51,14.00
2018,08,13,00,52,14.00
2018,08,13,00,53,14.00
2018,08,13,00,54,14.00
2018,08,13,00,55,14.00
2018,08,13,00,56,14.00
2018,08,13,00,57,14.00
2018,08,13,00,58,13.90
2018,08,13,00,59,13.90
2018,08,13,01,00,13.90
2018,08,13,01,01,13.90
2018,08,13,01,02,13.90
2018,08,13,01,03,13.90
2018,08,13,01,04,13.90
2018,08,13,01,05,13.90
2018,08,13,01,06,13.90
2018,08,13,01,07,13.90
2018,08,13,01,08,13.90
2018,08,13,01,09,13.90
2018,08,13,01,10,13.90
2018,08,13,01,11,13.90
2018,08,13,01,12,13.90
2018,08,13,01,13,13.90
2018,08,13,01,14,13.90
2018,08,13,01,15,13.80
2018,08,13,01,16,13.80
2018,08,13,01,17,13.80
2018,08,13,01,18,13.80
2018,08,13,01,19,13.80
2018,08,13,01,20,13.80
2018,08,13,01,21,13.80
2018,08,13,01,22,13.80
2018,08,13,01,23,13.80
2018,08,13,01,24,13.70
2018,08,13,01,25,13.70
2018,08,13,01,26,13.70
2018,08,13,01,27,13.70
2018,08,13,01,28,13.70
2018,08,13,01,29,13.70
2018,08,13,01,30,13.70
2018,08,13,01,31,13.70
2018,08,13,01,32,13.70
2018,08,13,01,33,13.70
2018,08,13,01,34,13.70
2018,08,13,01,35,13.70
2018,08,13,01,36,13.60
2018,08,13,01,37,13.60
2018,08,13,01,38,13.60
2018,08,13,01,39,13.60
2018,08,13,01,40,13.60
2018,08,13,01,41,13.60
2018,08,13,01,42,13.60
2018,08,13,01,43,13.60
2018,08,13,01,44,13.60
2018,08,13,01,45,13.60
2018,08,13,01,46,13.60
2018,08,13,01,47,13.60
2018,08,13,01,48,13.50
2018,08,13,01,49,13.50
2018,08,13,01,50,13.50
2018,08,13,01,51,13.50
2018,08,13,01,52,13.50
2018,08,13,01,53,13.50
2018,08,13,01,54,13.50
2018,08,13,01,55,13.50
2018,08,13,01,56,13.40
2018,08,13,01,57,13.40
2018,08,13,01,58,13.40
2018,08,13,01,59,13.40
2018,08,13,02,00,13.40
2018,08,13,02,01,13.30
2018,08,13,02,02,13.30
2018,08,13,02,03,13.30
2018,08,13,02,04,13.30
2018,08,13,02,05,13.30
2018,08,13,02,06,13.30
2018,08,13,02,07,13.20
2018,08,13,02,08,13.20
2018,08,13,02,09,13.20
2018,08,13,02,10,13.20
2018,08,13,02,11,13.20
2018,08,13,02,12,13.20
2018,08,13,02,13,13.20
2018,08,13,02,14,13.20
2018,08,13,02,15,13.20
2018,08,13,02,16,13.20
2018,08,13,02,17,13.20
2018,08,13,02,18,13.20
2018,08,13,02,19,13.20
2018,08,13,02,20,13.20
2018,08,13,02,21,13.20
2018,08,13,02,22,13.20
2018,08,13,02,23,13.20
2018,08,13,02,24,13.20
2018,08,13,02,25,13.20
2018,08,13,02,26,13.20
2018,08,13,02,27,13.20
2018,08,13,02,28,13.10
2018,08,13,02,29,13.10
2018,08,13,02,30,13.10
2018,08,13,02,31,13.10
2018,08,13,02,32,13.10
2018,08,13,02,33,13.10
2018,08,13,02,34,13.10
2018,08,13,02,35,13.10
2018,08,13,02,36,13.10
2018,08,13,02,37,13.10
2018,08,13,02,38,13.10
2018,08,13,02,39,13.10
2018,08,13,02,40,13.10
2018,08,13,02,41,13.10
2018,08,13,02,42,13.10
2018,08,13,02,43,13.10
2018,08,13,02,44,13.10
2018,08,13,02,45,13.10
2018,08,13,02,46,13.10
2018,08,13,02,47,13.10
2018,08,13,02,48,13.10
2018,08,13,02,49,13.10
2018,08,13,02,50,13.10
2018,08,13,02,51,13.10
2018,08,13,02,52,13.10
2018,08,13,02,53,13.10
2018,08,13,02,54,13.10
2018,08,13,02,55,13.00
2018,08,13,02,56,13.00
2018,08,13,02,57,13.00
2018,08,13,02,58,12.90
2018,08,13,02,59,12.90
2018,08,13,03,00,12.90
2018,08,13,03,01,12.90
2018,08,13,03,02,12.90
2018,08,13,03,03,12.90
2018,08,13,03,04,12.90
2018,08,13,03,05,12.90
2018,08,13,03,06,12.90
2018,08,13,03,07,12.90
2018,08,13,03,08,12.80
2018,08,13,03,09,12.80
2018,08,13,03,10,12.80
2018,08,13,03,11,12.80
2018,08,13,03,12,12.80
2018,08,13,03,13,12.80
2018,08,13,03,14,12.70
2018,08,13,03,15,12.70
2018,08,13,03,16,12.70
2018,08,13,03,17,12.70
2018,08,13,03,18,12.70
2018,08,13,03,19,12.70
2018,08,13,03,20,12.70
2018,08,13,03,21,12.70
2018,08,13,03,22,12.70
2018,08,13,03,23,12.70
2018,08,13,03,24,12.70
2018,08,13,03,25,12.70
2018,08,13,03,26,12.80
2018,08,13,03,27,12.80
2018,08,13,03,28,12.80
2018,08,13,03,29,12.80
2018,08,13,03,30,12.80
2018,08,13,03,31,12.70
2018,08,13,03,32,12.70
2018,08,13,03,33,12.70
2018,08,13,03,34,12.70
2018,08,13,03,35,12.70
2018,08,13,03,36,12.60
2018,08,13,03,37,12.60
2018,08,13,03,38,12.60
2018,08,13,03,39,12.60
2018,08,13,03,40,12.60
2018,08,13,03,41,12.60
2018,08,13,03,42,12.60
2018,08,13,03,43,12.60
2018,08,13,03,44,12.60
2018,08,13,03,45,12.60
2018,08,13,03,46,12.60
2018,08,13,03,47,12.60
2018,08,13,03,48,12.60
2018,08,13,03,49,12.60
2018,08,13,03,50,12.60
2018,08,13,03,51,12.60
2018,08,13,03,52,12.60
2018,08,13,03,53,12.60
2018,08,13,03,54,12.60
2018,08,13,03,55,12.60
2018,08,13,03,56,12.60
2018,08,13,03,57,12.60
2018,08,13,03,58,12.60
2018,08,13,03,59,12.60
2018,08,13,04,00,12.60
2018,08,13,04,01,12.50
2018,08,13,04,02,12.50
2018,08,13,04,03,12.50
2018,08,13,04,04,12.40
2018,08,13,04,05,12.40
2018,08,13,04,06,12.40
2018,08,13,04,07,12.40
2018,08,13,04,08,12.40
2018,08,13,04,09,12.40
2018,08,13,04,10,12.40
2018,08,13,04,11,12.40
2018,08,13,04,12,12.40
2018,08,13,04,13,12.40
2018,08,13,04,14,12.40
2018,08,13,04,15,12.30
2018,08,13,04,16,12.30
2018,08,13,04,17,12.30
2018,08,13,04,18,12.30
2018,08,13,04,19,12.30
2018,08,13,04,20,12.30
2018,08,13,04,21,12.30
2018,08,13,04,22,12.30
2018,08,13,04,23,12.20
2018,08,13,04,24,12.20
2018,08,13,04,25,12.20
2018,08,13,04,26,12.20
2018,08,13,04,27,12.20
2018,08,13,04,28,12.20
2018,08,13,04,29,12.20
2018,08,13,04,30,12.20
2018,08,13,04,31,12.20
2018,08,13,04,32,12.20
2018,08,13,04,33,12.20
2018,08,13,04,34,12.20
2018,08,13,04,35,12.20
2018,08,13,04,36,12.20
2018,08,13,04,37,12.20
2018,08,13,04,38,12.20
2018,08,13,04,39,12.20
2018,08,13,04,40,12.20
2018,08,13,04,41,12.20
2018,08,13,04,42,12.10
2018,08,13,04,43,12.10
2018,08,13,04,44,12.10
2018,08,13,04,45,12.10
2018,08,13,04,46,12.10
2018,08,13,04,47,12.10
2018,08,13,04,48,12.00
2018,08,13,04,49,12.00
2018,08,13,04,50,12.00
2018,08,13,04,51,12.00
2018,08,13,04,52,11.90
2018,08,13,04,53,11.90
2018,08,13,04,54,11.90
2018,08,13,04,55,11.90
2018,08,13,04,56,11.90
2018,08,13,04,57,11.90
2018,08,13,04,58,11.90
2018,08,13,04,59,11.90
2018,08,13,05,00,11.90
2018,08,13,05,01,11.90
2018,08,13,05,02,11.90
2018,08,13,05,03,11.90
2018,08,13,05,04,11.90
2018,08,13,05,05,11.90
2018,08,13,05,06,11.90
2018,08,13,05,07,11.90
2018,08,13,05,08,11.90
2018,08,13,05,09,11.90
2018,08,13,05,10,11.90
2018,08,13,05,11,11.90
2018,08,13,05,12,11.90
2018,08,13,05,13,11.90
2018,08,13,05,14,11.90
2018,08,13,05,15,11.90
2018,08,13,05,16,11.90
2018,08,13,05,17,11.90
2018,08,13,05,18,11.90
2018,08,13,05,19,11.90
2018,08,13,05,20,11.90
2018,08,13,05,21,11.80
2018,08,13,05,22,11.80
2018,08,13,05,23,11.80
2018,08,13,05,24,11.80
2018,08,13,05,25,11.80
2018,08,13,05,26,11.80
2018,08,13,05,27,11.80
2018,08,13,05,28,11.80
2018,08,13,05,29,11.80
2018,08,13,05,30,11.80
2018,08,13,05,31,11.70
2018,08,13,05,32,11.70
2018,08,13,05,33,11.70
2018,08,13,05,34,11.70
2018,08,13,05,35,11.70
2018,08,13,05,36,11.70
2018,08,13,05,37,11.70
2018,08,13,05,38,11.70
2018,08,13,05,39,11.70
2018,08,13,05,40,11.70
2018,08,13,05,41,11.70
2018,08,13,05,42,11.70
2018,08,13,05,43,11.70
2018,08,13,05,44,11.70
2018,08,13,05,45,11.70
2018,08,13,05,46,11.70
2018,08,13,05,47,11.70
2018,08,13,05,48,11.70
2018,08,13,05,49,11.60
2018,08,13,05,50,11.60
2018,08,13,05,51,11.60
2018,08,13,05,52,11.60
2018,08,13,05,53,11.60
2018,08,13,05,54,11.60
2018,08,13,05,55,11.60
2018,08,13,05,56,11.60
2018,08,13,05,57,11.50
2018,08,13,05,58,11.50
2018,08,13,05,59,11.50
2018,08,13,06,00,11.50
2018,08,13,06,01,11.50
2018,08,13,06,02,11.50
2018,08,13,06,03,11.50
2018,08,13,06,04,11.50
2018,08,13,06,05,11.40
2018,08,13,06,06,11.40
2018,08,13,06,07,11.40
2018,08,13,06,08,11.40
2018,08,13,06,09,11.40
2018,08,13,06,10,11.40
2018,08,13,06,11,11.40
2018,08,13,06,12,11.40
2018,08,13,06,13,11.40
2018,08,13,06,14,11.40
2018,08,13,06,15,11.40
2018,08,13,06,16,11.40
2018,08,13,06,17,11.40
2018,08,13,06,18,11.40
2018,08,13,06,19,11.40
2018,08,13,06,20,11.40
2018,08,13,06,21,11.40
2018,08,13,06,22,11.40
2018,08,13,06,23,11.50
2018,08,13,06,24,11.50
2018,08,13,06,25,11.50
2018,08,13,06,26,11.50
2018,08,13,06,27,11.50
2018,08,13,06,28,11.50
2018,08,13,06,29,11.50
2018,08,13,06,30,11.50
2018,08,13,06,31,11.50
2018,08,13,06,32,11.40
2018,08,13,06,33,11.40
2018,08,13,06,34,11.40
2018,08,13,06,35,11.40
2018,08,13,06,36,11.40
2018,08,13,06,37,11.30
2018,08,13,06,38,11.30
2018,08,13,06,39,11.30
2018,08,13,06,40,11.30
2018,08,13,06,41,11.30
2018,08,13,06,42,11.30
2018,08,13,06,43,11.30
2018,08,13,06,44,11.30
2018,08,13,06,45,11.30
2018,08,13,06,46,11.30
2018,08,13,06,47,11.20
2018,08,13,06,48,11.20
2018,08,13,06,49,11.20
2018,08,13,06,50,11.20
2018,08,13,06,51,11.20
2018,08,13,06,52,11.20
2018,08,13,06,53,11.10
2018,08,13,06,54,11.10
2018,08,13,06,55,11.10
2018,08,13,06,56,11.10
2018,08,13,06,57,11.10
2018,08,13,06,58,11.10
2018,08,13,06,59,11.10
2018,08,13,07,00,11.10
2018,08,13,07,01,11.20
2018,08,13,07,02,11.20
2018,08,13,07,03,11.20
2018,08,13,07,04,11.20
2018,08,13,07,05,11.20
2018,08,13,07,06,11.20
2018,08,13,07,07,11.20
2018,08,13,07,08,11.20
2018,08,13,07,09,11.20
2018,08,13,07,10,11.20
2018,08,13,07,11,11.20
2018,08,13,07,12,11.30
2018,08,13,07,13,11.30
2018,08,13,07,14,11.30
2018,08,13,07,15,11.30
2018,08,13,07,16,11.30
2018,08,13,07,17,11.30
2018,08,13,07,18,11.40
2018,08,13,07,19,11.40
2018,08,13,07,20,11.40
2018,08,13,07,21,11.40
2018,08,13,07,22,11.50
2018,08,13,07,23,11.50
2018,08,13,07,24,11.60
2018,08,13,07,25,11.60
2018,08,13,07,26,11.60
2018,08,13,07,27,11.60
2018,08,13,07,28,11.70
2018,08,13,07,29,11.70
2018,08,13,07,30,11.70
2018,08,13,07,31,11.70
2018,08,13,07,32,11.80
2018,08,13,07,33,11.80
2018,08,13,07,34,11.80
2018,08,13,07,35,11.90
2018,08,13,07,36,11.90
2018,08,13,07,37,12.00
2018,08,13,07,38,12.00
2018,08,13,07,39,12.10
2018,08,13,07,40,12.10
2018,08,13,07,41,12.10
2018,08,13,07,42,12.20
2018,08,13,07,43,12.20
2018,08,13,07,44,12.30
2018,08,13,07,45,12.30
2018,08,13,07,46,12.30
2018,08,13,07,47,12.40
2018,08,13,07,48,12.40
2018,08,13,07,49,12.40
2018,08,13,07,50,12.50
2018,08,13,07,51,12.50
2018,08,13,07,52,12.60
2018,08,13,07,53,12.60
2018,08,13,07,54,12.70
2018,08,13,07,55,12.70
2018,08,13,07,56,12.70
2018,08,13,07,57,12.70
2018,08,13,07,58,12.80
2018,08,13,07,59,12.80
2018,08,13,08,00,12.80
2018,08,13,08,01,12.90
2018,08,13,08,02,12.90
2018,08,13,08,03,12.90
2018,08,13,08,04,13.00
2018,08,13,08,05,13.00
2018,08,13,08,06,13.10
2018,08,13,08,07,13.10
2018,08,13,08,08,13.10
2018,08,13,08,09,13.20
2018,08,13,08,10,13.20
2018,08,13,08,11,13.30
2018,08,13,08,12,13.30
2018,08,13,08,13,13.30
2018,08,13,08,14,13.40
2018,08,13,08,15,13.40
2018,08,13,08,16,13.40
2018,08,13,08,17,13.50
2018,08,13,08,18,13.50
2018,08,13,08,19,13.60
2018,08,13,08,20,13.60
2018,08,13,08,21,13.60
2018,08,13,08,22,13.70
2018,08,13,08,23,13.70
2018,08,13,08,24,13.70
2018,08,13,08,25,13.80
2018,08,13,08,26,13.80
2018,08,13,08,27,13.80
2018,08,13,08,28,13.90
2018,08,13,08,29,13.90
2018,08,13,08,30,14.00
2018,08,13,08,31,14.00
2018,08,13,08,32,14.10
2018,08,13,08,33,14.10
2018,08,13,08,34,14.20
2018,08,13,08,35,14.20
2018,08,13,08,36,14.30
2018,08,13,08,37,14.30
2018,08,13,08,38,14.40
2018,08,13,08,39,14.40
2018,08,13,08,40,14.40
2018,08,13,08,41,14.50
2018,08,13,08,42,14.50
2018,08,13,08,43,14.60
2018,08,13,08,44,14.60
2018,08,13,08,45,14.60
2018,08,13,08,46,14.70
2018,08,13,08,47,14.80
2018,08,13,08,48,14.80
2018,08,13,08,49,14.80
2018,08,13,08,50,14.90
2018,08,13,08,51,15.00
2018,08,13,08,52,15.00
2018,08,13,08,53,15.10
2018,08,13,08,54,15.10
2018,08,13,08,55,15.10
2018,08,13,08,56,15.20
2018,08,13,08,57,15.20
2018,08,13,08,58,15.30
2018,08,13,08,59,15.30
2018,08,13,09,00,15.40
2018,08,13,09,01,15.40
2018,08,13,09,02,15.40
2018,08,13,09,03,15.50
2018,08,13,09,04,15.50
2018,08,13,09,05,15.50
2018,08,13,09,06,15.60
2018,08,13,09,07,15.60
2018,08,13,09,08,15.60
2018,08,13,09,09,15.70
2018,08,13,09,10,15.70
2018,08,13,09,11,15.80
2018,08,13,09,12,15.80
2018,08,13,09,13,15.80
2018,08,13,09,14,15.90
2018,08,13,09,15,15.90
2018,08,13,09,16,16.00
2018,08,13,09,17,16.00
2018,08,13,09,18,16.10
2018,08,13,09,19,16.10
2018,08,13,09,20,16.20
2018,08,13,09,21,16.20
2018,08,13,09,22,16.30
2018,08,13,09,23,16.30
2018,08,13,09,24,16.40
2018,08,13,09,25,16.40
2018,08,13,09,26,16.50
2018,08,13,09,27,16.50
2018,08,13,09,28,16.50
2018,08,13,09,29,16.60
2018,08,13,09,30,16.70
2018,08,13,09,31,16.80
2018,08,13,09,32,16.90
2018,08,13,09,33,16.90
2018,08,13,09,34,17.00
2018,08,13,09,35,17.00
2018,08,13,09,36,17.10
2018,08,13,09,37,17.10
2018,08,13,09,38,17.10
2018,08,13,09,39,17.10
2018,08,13,09,40,17.20
2018,08,13,09,41,17.20
2018,08,13,09,42,17.30
2018,08,13,09,43,17.30
2018,08,13,09,44,17.40
2018,08,13,09,45,17.40
2018,08,13,09,46,17.50
2018,08,13,09,47,17.50
2018,08,13,09,48,17.60
2018,08,13,09,49,17.60
2018,08,13,09,50,17.70
2018,08,13,09,51,17.70
2018,08,13,09,52,17.70
2018,08,13,09,53,17.80
2018,08,13,09,54,17.80
2018,08,13,09,55,17.90
2018,08,13,09,56,18.00
2018,08,13,09,57,18.10
2018,08,13,09,58,18.10
2018,08,13,09,59,18.20
2018,08,13,10,00,18.30
2018,08,13,10,01,18.30
2018,08,13,10,02,18.40
2018,08,13,10,03,18.40
2018,08,13,10,04,18.50
2018,08,13,10,05,18.60
2018,08,13,10,06,18.60
2018,08,13,10,07,18.70
2018,08,13,10,08,18.70
2018,08,13,10,09,18.80
2018,08,13,10,10,18.80
2018,08,13,10,11,18.80
2018,08,13,10,12,18.80
2018,08,13,10,13,18.90
2018,08,13,10,14,18.90
2018,08,13,10,15,19.00
2018,08,13,10,16,19.10
2018,08,13,10,17,19.20
2018,08,13,10,18,19.30
2018,08,13,10,19,19.30
2018,08,13,10,20,19.40
2018,08,13,10,21,19.50
2018,08,13,10,22,19.60
2018,08,13,10,23,19.70
2018,08,13,10,24,19.70
2018,08,13,10,25,19.80
2018,08,13,10,26,19.80
2018,08,13,10,27,19.80
2018,08,13,10,28,19.80
2018,08,13,10,29,19.90
2018,08,13,10,30,19.90
2018,08,13,10,31,20.00
2018,08,13,10,32,20.00
2018,08,13,10,33,20.10
2018,08,13,10,34,20.20
2018,08,13,10,35,20.30
2018,08,13,10,36,20.30
2018,08,13,10,37,20.30
2018,08,13,10,38,20.30
2018,08,13,10,39,20.30
2018,08,13,10,40,20.30
2018,08,13,10,41,20.40
2018,08,13,10,42,20.40
2018,08,13,10,43,20.40
2018,08,13,10,44,20.50
2018,08,13,10,45,20.60
2018,08,13,10,46,20.60
2018,08,13,10,47,20.60
2018,08,13,10,48,20.70
2018,08,13,10,49,20.70
2018,08,13,10,50,20.80
2018,08,13,10,51,20.80
2018,08,13,10,52,20.80
2018,08,13,10,53,20.90
2018,08,13,10,54,20.90
2018,08,13,10,55,20.90
2018,08,13,10,56,20.90
2018,08,13,10,57,21.00
2018,08,13,10,58,21.00
2018,08,13,10,59,21.10
2018,08,13,11,00,21.20
2018,08,13,11,01,21.20
2018,08,13,11,02,21.20
2018,08,13,11,03,21.20
2018,08,13,11,04,21.20
2018,08,13,11,05,21.20
2018,08,13,11,06,21.20
2018,08,13,11,07,21.20
2018,08,13,11,08,21.30
2018,08,13,11,09,21.30
2018,08,13,11,10,21.30
2018,08,13,11,11,21.40
2018,08,13,11,12,21.40
2018,08,13,11,13,21.40
2018,08,13,11,14,21.50
2018,08,13,11,15,21.50
2018,08,13,11,16,21.60
2018,08,13,11,17,21.60
2018,08,13,11,18,21.70
2018,08,13,11,19,21.80
2018,08,13,11,20,21.80
2018,08,13,11,21,21.80
2018,08,13,11,22,21.90
2018,08,13,11,23,21.90
2018,08,13,11,24,22.00
2018,08,13,11,25,22.10
2018,08,13,11,26,22.10
2018,08,13,11,27,22.10
2018,08,13,11,28,22.20
2018,08,13,11,29,22.10
2018,08,13,11,30,22.10
2018,08,13,11,31,22.10
2018,08,13,11,32,22.10
2018,08,13,11,33,22.10
2018,08,13,11,34,22.10
2018,08,13,11,35,22.10
2018,08,13,11,36,22.10
2018,08,13,11,37,22.20
2018,08,13,11,38,22.20
2018,08,13,11,39,22.20
2018,08,13,11,40,22.20
2018,08,13,11,41,22.20
2018,08,13,11,42,22.20
2018,08,13,11,43,22.20
2018,08,13,11,44,22.20
2018,08,13,11,45,22.20
2018,08,13,11,46,22.30
2018,08,13,11,47,22.30
2018,08,13,11,48,22.40
2018,08,13,11,49,22.40
2018,08,13,11,50,22.50
2018,08,13,11,51,22.50
2018,08,13,11,52,22.40
2018,08,13,11,53,22.40
2018,08,13,11,54,22.40
2018,08,13,11,55,22.40
2018,08,13,11,56,22.40
2018,08,13,11,57,22.50
2018,08,13,11,58,22.50
2018,08,13,11,59,22.60
2018,08,13,12,00,22.60
2018,08,13,12,01,22.70
2018,08,13,12,02,22.80
2018,08,13,12,03,22.90
2018,08,13,12,04,23.00
2018,08,13,12,05,23.10
2018,08,13,12,06,23.20
2018,08,13,12,07,23.40
2018,08,13,12,08,23.40
2018,08,13,12,09,23.40
2018,08,13,12,10,23.40
2018,08,13,12,11,23.30
2018,08,13,12,12,23.20
2018,08,13,12,13,23.10
2018,08,13,12,14,23.00
2018,08,13,12,15,22.90
2018,08,13,12,16,22.80
2018,08,13,12,17,22.70
2018,08,13,12,18,22.70
2018,08,13,12,19,22.60
2018,08,13,12,20,22.60
2018,08,13,12,21,22.60
2018,08,13,12,22,22.70
2018,08,13,12,23,22.60
2018,08,13,12,24,22.60
2018,08,13,12,25,22.50
2018,08,13,12,26,22.50
2018,08,13,12,27,22.40
2018,08,13,12,28,22.50
2018,08,13,12,29,22.50
2018,08,13,12,30,22.50
2018,08,13,12,31,22.50
2018,08,13,12,32,22.50
2018,08,13,12,33,22.60
2018,08,13,12,34,22.60
2018,08,13,12,35,22.70
2018,08,13,12,36,22.70
2018,08,13,12,37,22.70
2018,08,13,12,38,22.70
2018,08,13,12,39,22.70
2018,08,13,12,40,22.70
2018,08,13,12,41,22.80
2018,08,13,12,42,22.80
2018,08,13,12,43,22.90
2018,08,13,12,44,22.90
2018,08,13,12,45,22.90
2018,08,13,12,46,23.00
2018,08,13,12,47,23.10
2018,08,13,12,48,23.20
2018,08,13,12,49,23.20
2018,08,13,12,50,23.20
2018,08,13,12,51,23.20
2018,08,13,12,52,23.20
2018,08,13,12,53,23.20
2018,08,13,12,54,23.10
2018,08,13,12,55,23.10
2018,08,13,12,56,23.10
2018,08,13,12,57,23.10
2018,08,13,12,58,23.10
2018,08,13,12,59,23.10
2018,08,13,13,00,23.20
2018,08,13,13,01,23.20
2018,08,13,13,02,23.30
2018,08,13,13,03,23.30
2018,08,13,13,04,23.40
2018,08,13,13,05,23.40
2018,08,13,13,06,23.50
2018,08,13,13,07,23.60
2018,08,13,13,08,23.60
2018,08,13,13,09,23.60
2018,08,13,13,10,23.50
2018,08,13,13,11,23.40
2018,08,13,13,12,23.40
2018,08,13,13,13,23.50
2018,08,13,13,14,23.60
2018,08,13,13,15,23.70
2018,08,13,13,16,23.60
2018,08,13,13,17,23.60
2018,08,13,13,18,23.50
2018,08,13,13,19,23.60
2018,08,13,13,20,23.60
2018,08,13,13,21,23.50
2018,08,13,13,22,23.50
2018,08,13,13,23,23.50
2018,08,13,13,24,23.50
2018,08,13,13,25,23.60
2018,08,13,13,26,23.70
2018,08,13,13,27,23.70
2018,08,13,13,28,23.80
2018,08,13,13,29,23.80
2018,08,13,13,30,23.80
2018,08,13,13,31,23.80
2018,08,13,13,32,23.90
2018,08,13,13,33,23.90
2018,08,13,13,34,24.00
2018,08,13,13,35,24.00
2018,08,13,13,36,24.10
2018,08,13,13,37,24.10
2018,08,13,13,38,24.10
2018,08,13,13,39,24.10
2018,08,13,13,40,24.00
2018,08,13,13,41,24.00
2018,08,13,13,42,23.90
2018,08,13,13,43,23.90
2018,08,13,13,44,23.90
2018,08,13,13,45,24.00
2018,08,13,13,46,24.10
2018,08,13,13,47,24.10
2018,08,13,13,48,24.10
2018,08,13,13,49,24.10
2018,08,13,13,50,24.10
2018,08,13,13,51,24.10
2018,08,13,13,52,24.20
2018,08,13,13,53,24.20
2018,08,13,13,54,24.30
2018,08,13,13,55,24.40
2018,08,13,13,56,24.40
2018,08,13,13,57,24.30
2018,08,13,13,58,24.30
2018,08,13,13,59,24.30
2018,08,13,14,00,24.30
2018,08,13,14,01,24.30
2018,08,13,14,02,24.30
2018,08,13,14,03,24.30
2018,08,13,14,04,24.20
2018,08,13,14,05,24.20
2018,08,13,14,06,24.20
2018,08,13,14,07,24.20
2018,08,13,14,08,24.20
2018,08,13,14,09,24.20
2018,08,13,14,10,24.20
2018,08,13,14,11,24.20
2018,08,13,14,12,24.20
2018,08,13,14,13,24.20
2018,08,13,14,14,24.20
2018,08,13,14,15,24.30
2018,08,13,14,16,24.30
2018,08,13,14,17,24.40
2018,08,13,14,18,24.50
2018,08,13,14,19,24.50
2018,08,13,14,20,24.50
2018,08,13,14,21,24.50
2018,08,13,14,22,24.50
2018,08,13,14,23,24.60
2018,08,13,14,24,24.70
2018,08,13,14,25,24.80
2018,08,13,14,26,24.80
2018,08,13,14,27,24.90
2018,08,13,14,28,25.00
2018,08,13,14,29,25.00
2018,08,13,14,30,25.00
2018,08,13,14,31,25.00
2018,08,13,14,32,25.10
2018,08,13,14,33,25.10
2018,08,13,14,34,25.10
2018,08,13,14,35,25.00
2018,08,13,14,36,25.00
2018,08,13,14,37,25.00
2018,08,13,14,38,25.10
2018,08,13,14,39,25.10
2018,08,13,14,40,25.10
2018,08,13,14,41,25.10
2018,08,13,14,42,25.10
2018,08,13,14,43,25.10
2018,08,13,14,44,25.20
2018,08,13,14,45,25.20
2018,08,13,14,46,25.20
2018,08,13,14,47,25.20
2018,08,13,14,48,25.30
2018,08,13,14,49,25.30
2018,08,13,14,50,25.40
2018,08,13,14,51,25.40
2018,08,13,14,52,25.40
2018,08,13,14,53,25.40
2018,08,13,14,54,25.40
2018,08,13,14,55,25.40
2018,08,13,14,56,25.50
2018,08,13,14,57,25.50
2018,08,13,14,58,25.60
2018,08,13,14,59,25.60
2018,08,13,15,00,25.60
2018,08,13,15,01,25.60
2018,08,13,15,02,25.60
2018,08,13,15,03,25.60
2018,08,13,15,04,25.70
2018,08,13,15,05,25.70
2018,08,13,15,06,25.70
2018,08,13,15,07,25.70
2018,08,13,15,08,25.80
2018,08,13,15,09,25.80
2018,08,13,15,10,25.90
2018,08,13,15,11,26.00
2018,08,13,15,12,26.00
2018,08,13,15,13,26.00
2018,08,13,15,14,26.00
2018,08,13,15,15,26.00
2018,08,13,15,16,25.90
2018,08,13,15,17,25.80
2018,08,13,15,18,25.80
2018,08,13,15,19,25.70
2018,08,13,15,20,25.70
2018,08,13,15,21,25.70
2018,08,13,15,22,25.70
2018,08,13,15,23,25.70
2018,08,13,15,24,25.70
2018,08,13,15,25,25.70
2018,08,13,15,26,25.80
2018,08,13,15,27,25.80
2018,08,13,15,28,25.90
2018,08,13,15,29,25.90
2018,08,13,15,30,25.90
2018,08,13,15,31,25.90
2018,08,13,15,32,25.80
2018,08,13,15,33,25.80
2018,08,13,15,34,25.80
2018,08,13,15,35,25.80
2018,08,13,15,36,25.80
2018,08,13,15,37,25.80
2018,08,13,15,38,25.80
2018,08,13,15,39,25.80
2018,08,13,15,40,25.80
2018,08,13,15,41,25.80
2018,08,13,15,42,25.70
2018,08,13,15,43,25.70
2018,08,13,15,44,25.70
2018,08,13,15,45,25.70
2018,08,13,15,46,25.70
2018,08,13,15,47,25.70
2018,08,13,15,48,25.70
2018,08,13,15,49,25.70
2018,08,13,15,50,25.80
2018,08,13,15,51,25.80
2018,08,13,15,52,25.80
2018,08,13,15,53,25.90
2018,08,13,15,54,26.00
2018,08,13,15,55,26.00
2018,08,13,15,56,26.10
2018,08,13,15,57,26.10
2018,08,13,15,58,26.10
2018,08,13,15,59,26.10
2018,08,13,16,00,26.10
2018,08,13,16,01,26.20
2018,08,13,16,02,26.20
2018,08,13,16,03,26.20
2018,08,13,16,04,26.20
2018,08,13,16,05,26.20
2018,08,13,16,06,26.30
2018,08,13,16,07,26.30
2018,08,13,16,08,26.30
2018,08,13,16,09,26.30
2018,08,13,16,10,26.30
2018,08,13,16,11,26.30
2018,08,13,16,12,26.30
2018,08,13,16,13,26.30
2018,08,13,16,14,26.30
2018,08,13,16,15,26.30
2018,08,13,16,16,26.20
2018,08,13,16,17,26.20
2018,08,13,16,18,26.20
2018,08,13,16,19,26.20
2018,08,13,16,20,26.20
2018,08,13,16,21,26.20
2018,08,13,16,22,26.20
2018,08,13,16,23,26.20
2018,08,13,16,24,26.20
2018,08,13,16,25,26.10
2018,08,13,16,26,26.10
2018,08,13,16,27,26.10
2018,08,13,16,28,26.10
2018,08,13,16,29,26.20
2018,08,13,16,30,26.20
2018,08,13,16,31,26.20
2018,08,13,16,32,26.20
2018,08,13,16,33,26.20
2018,08,13,16,34,26.20
2018,08,13,16,35,26.20
2018,08,13,16,36,26.20
2018,08,13,16,37,26.20
2018,08,13,16,38,26.20
2018,08,13,16,39,26.20
2018,08,13,16,40,26.20
2018,08,13,16,41,26.20
2018,08,13,16,42,26.30
2018,08,13,16,43,26.30
2018,08,13,16,44,26.30
2018,08,13,16,45,26.30
2018,08,13,16,46,26.30
2018,08,13,16,47,26.30
2018,08,13,16,48,26.30
2018,08,13,16,49,26.30
2018,08,13,16,50,26.30
2018,08,13,16,51,26.20
2018,08,13,16,52,26.20
2018,08,13,16,53,26.20
2018,08,13,16,54,26.20
2018,08,13,16,55,26.20
2018,08,13,16,56,26.20
2018,08,13,16,57,26.20
2018,08,13,16,58,26.10
2018,08,13,16,59,26.10
2018,08,13,17,00,26.00
2018,08,13,17,01,25.90
2018,08,13,17,02,25.90
2018,08,13,17,03,25.90
2018,08,13,17,04,25.90
2018,08,13,17,05,26.00
2018,08,13,17,06,26.10
2018,08,13,17,07,26.10
2018,08,13,17,08,26.10
2018,08,13,17,09,26.20
2018,08,13,17,10,26.20
2018,08,13,17,11,26.20
2018,08,13,17,12,26.20
2018,08,13,17,13,26.20
2018,08,13,17,14,26.20
2018,08,13,17,15,26.10
2018,08,13,17,16,26.20
2018,08,13,17,17,26.20
2018,08,13,17,18,26.20
2018,08,13,17,19,26.20